Location: Newark
(42.8481°N, 0.4872°E)
Time: 08:33:19
(UTC+00:00)

Transit 2A Rocket - Pass Details

Date: 02 November 2020
Orbit: 588 x 914 km, 66.7° (Epoch: 29 November)

Event Time Altitude Azimuth Distance (km) Brightness Sun altitude
Rises 08:54:18 0° 224° (SW) 3,536 8.5 20.6°
Reaches altitude 10° 08:56:54 10° 229° (SW) 2,596 7.8 21.0°
Maximum altitude 09:02:50 53° 306° (NW) 1,093 5.7 21.7°
Drops below altitude 10° 09:08:35 10° 23° (NNE) 2,506 7.5 22.4°
Sets 09:11:04 0° 28° (NNE) 3,404 8.1 22.7°
